[[{"header":{"parameterUnit":"m.s-1","parameterCategory":1,"la1":30.2991,"la2":30.254,"lo1":-89.0895,"lo2":-89.0444,"dy":0.0017,"dx":0.0017,"nx":28,"ny":28,"refTime":"2024-12-17T03:00:00:Z","depth":0,"parameterNumber":2,"parameterNumberName":"U-component_of_WINDS"},"data":[0,0,0,0,0,0,0,0,0,0,0,0,0,0,0,0,0,0,0,0,0,0,0,0,0,0,0,0,0,0,0,0,0,0,0,0,0,0,0,0,0,0,0,0,0,0,0,0,0,0,0,0,0,0,0,0,0,0,-0.8042,-0.804,0,-0.7901,-0.7899,-0.7898,-0.7815,-0.7815,-0.7814,-0.7814,-0.7666,-0.7662,-0.7658,0,0,0,0,0,0,0,0,0,0,0,0,0,-0.8236,-0.8233,-0.8042,-0.804,-0.8039,-0.7901,-0.7899,-0.7897,-0.7815,-0.7815,-0.7814,-0.7814,-0.7667,-0.7662,-0.7658,0,0,0,0,0,0,0,0,0,0,0,0,0,-0.8129,-0.8232,-0.8042,-0.7981,-0.7974,-0.7902,-0.7899,-0.7897,-0.7815,-0.7815,-0.7814,-0.7814,-0.7668,-0.7663,-0.7658,-0.7634,0,0,-0.7641,-0.7638,0,0,0,0,0,0,0,0,-0.8135,-0.8122,-0.7992,-0.7985,-0.7977,-0.7875,-0.7913,-0.7808,-0.7815,-0.7875,-0.7814,-0.7813,-0.7735,-0.7724,-0.7699,-0.7627,-0.762,-0.764,-0.7637,-0.7635,-0.7633,0,0,0,0,0,0,0,-0.8143,-0.8128,-0.7986,-0.799,-0.7981,-0.7959,-0.7944,-0.7893,-0.781,-0.787,-0.7864,-0.7848,-0.7731,-0.7704,-0.7695,-0.7618,-0.764,-0.7636,-0.7632,-0.763,-0.7519,-0.7519,0,0,0,0,0,0,-0.8161,-0.8135,-0.7991,-0.7982,-0.8057,-0.7956,-0.7939,-0.7908,-0.781,-0.7795,-0.7849,-0.7845,-0.7714,-0.7701,-0.7689,-0.7655,-0.7635,-0.763,-0.7626,-0.7519,-0.7519,-0.7519,0,0,0,0,0,0,-0.8165,-0.8149,-0.7996,-0.8056,-0.8035,-0.7953,-0.792,-0.7906,-0.7879,-0.7794,-0.7779,-0.7837,-0.7713,-0.7697,-0.7648,-0.7649,-0.7627,-0.7622,-0.7518,-0.7519,-0.7519,-0.7587,0,0,0,0,0,0,-0.8171,-0.8151,-0.8142,-0.8057,-0.8033,-0.7959,-0.792,-0.7903,-0.787,-0.7864,-0.7779,-0.7764,-0.7711,-0.7657,-0.7643,-0.7641,-0.7618,-0.7518,-0.7518,-0.7519,-0.7584,-0.759,-0.7594,0,0,0,0,0,-0.8178,-0.8166,-0.8142,-0.8125,-0.802,-0.7959,-0.7945,-0.7886,-0.7871,-0.786,-0.7806,-0.7767,-0.7651,-0.7653,-0.7636,-0.7633,-0.7518,-0.7518,-0.7519,-0.7582,-0.7589,-0.7594,0,0,0,0,0,0,-0.8251,-0.8153,-0.8126,-0.8086,-0.8032,-0.7946,-0.7931,-0.7895,-0.7843,-0.7839,-0.7766,-0.7747,-0.7706,-0.7664,-0.7668,-0.7604,-0.758,-0.7577,-0.7633,-0.7639,-0.7644,-0.7655,-0.7613,0,0,0,0,0,-0.8263,-0.8224,-0.8139,-0.8112,-0.8086,-0.8014,-0.7985,-0.7944,-0.7884,-0.7861,-0.7803,-0.7746,-0.7696,-0.7665,-0.7615,-0.7577,-0.7558,-0.7567,-0.7572,-0.7576,-0.7575,-0.7552,-0.7555,-0.7522,-0.7522,-0.7522,0,0,-0.8286,-0.8228,-0.8207,-0.8125,-0.8078,-0.8038,-0.7995,-0.7954,-0.7923,-0.7854,-0.7805,-0.7761,-0.7692,-0.7649,-0.7627,-0.7613,-0.758,-0.7577,-0.7581,-0.7577,-0.7553,-0.7557,-0.756,-0.7522,-0.7522,-0.7522,0,0,-0.8308,-0.826,-0.8232,-0.8187,-0.8117,-0.8069,-0.8062,-0.7981,-0.795,-0.79,-0.7848,-0.7809,-0.7725,-0.7678,-0.7644,-0.7648,-0.761,-0.7633,-0.766,-0.7638,-0.7641,-0.7643,-0.7645,-0.7646,-0.7632,-0.7632,-0.7632,0,-0.8346,-0.8284,-0.8222,-0.8184,-0.815,-0.8087,-0.8057,-0.8016,-0.7933,-0.791,-0.7895,-0.7789,-0.7738,-0.7683,-0.7685,-0.7658,-0.7648,-0.7643,-0.7646,-0.7647,-0.7648,-0.7649,-0.765,-0.7636,-0.7635,-0.7635,-0.7635,0,-0.8334,-0.8292,-0.8277,-0.8201,-0.8164,-0.813,-0.8062,-0.8032,-0.7994,-0.7947,-0.7897,-0.7834,-0.777,-0.7754,-0.7715,-0.7693,-0.7687,-0.766,-0.7634,-0.7656,-0.7655,-0.7655,-0.7641,-0.7639,-0.7638,-0.7637,0,0,-0.8398,-0.8288,-0.8284,-0.8248,-0.8167,-0.8132,-0.8096,-0.8034,-0.801,-0.7955,-0.7922,-0.7853,-0.7827,-0.7788,-0.7744,-0.7725,-0.7733,-0.77,-0.7697,-0.7709,-0.7705,-0.7727,-0.7728,-0.7707,-0.7707,-0.7707,-0.7711,0,-0.8409,-0.8342,-0.8285,-0.8238,-0.8198,-0.8138,-0.8106,-0.8052,-0.8007,-0.7965,-0.7914,-0.7867,-0.7837,-0.7813,-0.7792,-0.7737,-0.7731,-0.7736,-0.7675,-0.7674,-0.7696,-0.7728,-0.775,-0.7757,-0.771,-0.771,-0.771,0,-0.8412,-0.8361,-0.8311,-0.8234,-0.8215,-0.8188,-0.8127,-0.8088,-0.8025,-0.7994,-0.795,-0.7905,-0.7862,-0.784,-0.778,-0.7784,-0.7756,-0.7725,-0.7724,-0.7716,-0.7694,-0.7722,-0.7758,-0.776,-0.7709,-0.7709,-0.771,0,-0.8465,-0.8384,-0.8343,-0.8315,-0.8223,-0.8206,-0.8166,-0.8103,-0.807,-0.8016,-0.7994,-0.7936,-0.7904,-0.7859,-0.7798,-0.7788,-0.7744,-0.7717,-0.7716,-0.7718,-0.771,-0.7712,-0.7743,-0.7691,-0.7691,-0.7691,-0.7691,0,-0.8483,-0.8455,-0.8366,-0.8341,-0.8308,-0.8242,-0.821,-0.8165,-0.8109,-0.8074,-0.8017,-0.7985,-0.7906,-0.7864,-0.7816,-0.7774,-0.7759,-0.7732,-0.772,-0.7738,-0.7741,-0.7719,-0.7717,-0.7692,-0.7692,-0.7692,-0.7692,0,-0.8537,-0.8476,-0.8429,-0.8347,-0.8325,-0.8304,-0.8233,-0.8206,-0.8158,-0.8114,-0.81,-0.8023,-0.7971,-0.7906,-0.7832,-0.7799,-0.7762,-0.7743,-0.7784,-0.7777,-0.778,-0.7781,-0.7799,-0.7798,-0.7747,-0.7747,-0.7748,0,-0.8554,-0.8531,-0.8447,-0.842,-0.8383,-0.834,-0.8306,-0.824,-0.8207,-0.8134,-0.8115,-0.8059,-0.801,-0.7929,-0.7866,-0.7809,-0.7789,-0.7799,-0.778,-0.7799,-0.7789,-0.7792,-0.7789,-0.7804,-0.7805,-0.7806,-0.7806,0,-0.8589,-0.856,-0.8515,-0.8459,-0.8421,-0.8373,-0.8322,-0.8303,-0.8226,-0.8191,-0.8138,-0.81,-0.8026,-0.797,-0.7905,-0.7863,-0.7822,-0.7813,-0.7809,-0.7828,-0.7853,-0.784,-0.7798,-0.7813,-0.7812,-0.7812,-0.7811,-0.7811,-0.8625,-0.8602,-0.854,-0.8491,-0.8446,-0.84,-0.8371,-0.832,-0.8275,-0.821,-0.8172,-0.812,-0.8057,-0.7966,-0.7925,-0.7883,-0.7867,-0.7863,-0.7861,-0.7862,-0.7868,-0.786,-0.787,-0.787,-0.787,-0.7869,-0.7869,0,-0.8658,-0.8615,-0.8571,-0.8503,-0.8464,-0.843,-0.8372,-0.8341,-0.8297,-0.8242,-0.8196,-0.8134,-0.808,-0.8013,-0.7954,-0.7932,-0.7912,-0.7919,-0.792,-0.7911,-0.7884,-0.7893,-0.7937,-0.7937,-0.7937,-0.7937,-0.7937,-0.7937,-0.8671,-0.8631,-0.8594,-0.8531,-0.8487,-0.8437,-0.8407,-0.8364,-0.832,-0.8254,-0.821,-0.8167,-0.8107,-0.8043,-0.7991,-0.7973,-0.7954,-0.7967,-0.7943,-0.7919,-0.7913,-0.7908,-0.7916,-0.7963,-0.7963,-0.7974,-0.7974,-0.7974]},{"header":{"parameterUnit":"m.s-1","parameterCategory":1,"la1":30.2991,"la2":30.254,"lo1":-89.0895,"lo2":-89.0444,"dy":0.0017,"dx":0.0017,"nx":28,"ny":28,"refTime":"2024-12-17T03:00:00:Z","depth":0,"parameterNumber":3,"parameterNumberName":"V-component_of_WINDS"},"data":[0,0,0,0,0,0,0,0,0,0,0,0,0,0,0,0,0,0,0,0,0,0,0,0,0,0,0,0,0,0,0,0,0,0,0,0,0,0,0,0,0,0,0,0,0,0,0,0,0,0,0,0,0,0,0,0,0,0,-0.6562,-0.6564,0,-0.6741,-0.6743,-0.6745,-0.6802,-0.6801,-0.68,-0.68,-0.6983,-0.6989,-0.6994,0,0,0,0,0,0,0,0,0,0,0,0,0,-0.6268,-0.6273,-0.6562,-0.6564,-0.6566,-0.6741,-0.6743,-0.6746,-0.6802,-0.6801,-0.68,-0.6799,-0.6981,-0.6988,-0.6995,0,0,0,0,0,0,0,0,0,0,0,0,0,-0.6416,-0.6275,-0.6561,-0.6615,-0.6622,-0.674,-0.6743,-0.6746,-0.6802,-0.6801,-0.68,-0.6799,-0.6979,-0.6988,-0.6996,-0.7073,0,0,-0.7022,-0.7026,0,0,0,0,0,0,0,0,-0.6408,-0.6427,-0.6605,-0.6612,-0.662,-0.6748,-0.6707,-0.6856,-0.6803,-0.6734,-0.68,-0.6798,-0.6906,-0.692,-0.6957,-0.7082,-0.709,-0.7023,-0.7028,-0.7031,-0.7034,0,0,0,0,0,0,0,-0.6397,-0.6419,-0.6633,-0.6608,-0.6617,-0.663,-0.665,-0.6735,-0.6825,-0.674,-0.6744,-0.6765,-0.691,-0.6948,-0.6962,-0.7092,-0.7022,-0.703,-0.7035,-0.7038,-0.7288,-0.729,0,0,0,0,0,0,-0.6378,-0.641,-0.6627,-0.6638,-0.6508,-0.6637,-0.6659,-0.6708,-0.6824,-0.6841,-0.6766,-0.6767,-0.6935,-0.6952,-0.6968,-0.7067,-0.7031,-0.7039,-0.7044,-0.7287,-0.7289,-0.729,0,0,0,0,0,0,-0.6371,-0.6397,-0.662,-0.6526,-0.6555,-0.6643,-0.6698,-0.6712,-0.6751,-0.6844,-0.686,-0.6789,-0.6934,-0.6956,-0.7046,-0.7074,-0.7043,-0.7051,-0.7285,-0.7287,-0.729,-0.7264,0,0,0,0,0,0,-0.6363,-0.6394,-0.6425,-0.6526,-0.656,-0.6696,-0.67,-0.6717,-0.6766,-0.6769,-0.687,-0.6885,-0.6935,-0.7033,-0.7055,-0.7085,-0.7057,-0.7283,-0.7286,-0.7289,-0.7263,-0.7265,-0.7267,0,0,0,0,0,-0.6352,-0.6411,-0.6426,-0.6452,-0.66,-0.6697,-0.6717,-0.6773,-0.6767,-0.6799,-0.6858,-0.6882,-0.7066,-0.7042,-0.7067,-0.71,-0.7282,-0.7285,-0.7289,-0.7262,-0.7265,-0.7267,0,0,0,0,0,0,-0.6312,-0.6425,-0.6443,-0.6537,-0.6607,-0.6706,-0.6749,-0.6774,-0.6847,-0.6847,-0.6913,-0.6935,-0.702,-0.7069,-0.704,-0.718,-0.7175,-0.7184,-0.7146,-0.715,-0.7152,-0.714,-0.7065,0,0,0,0,0,-0.6313,-0.6383,-0.6478,-0.6551,-0.6585,-0.666,-0.6704,-0.6741,-0.6816,-0.6846,-0.6912,-0.6984,-0.7058,-0.7106,-0.7179,-0.7268,-0.7292,-0.7303,-0.7305,-0.7306,-0.7314,-0.7364,-0.7371,-0.7302,-0.7302,-0.7302,0,0,-0.6319,-0.6389,-0.6429,-0.6544,-0.6603,-0.6673,-0.6685,-0.6759,-0.6812,-0.6858,-0.6948,-0.6997,-0.7082,-0.7172,-0.7215,-0.7215,-0.7337,-0.7311,-0.7311,-0.7318,-0.7369,-0.7375,-0.7381,-0.7304,-0.7304,-0.7303,0,0,-0.6364,-0.6424,-0.6491,-0.6549,-0.6637,-0.6686,-0.6702,-0.6797,-0.6832,-0.6923,-0.6959,-0.7021,-0.7148,-0.7207,-0.7253,-0.7316,-0.7341,-0.7338,-0.735,-0.7399,-0.7404,-0.7409,-0.7433,-0.7441,-0.7344,-0.7344,-0.7344,0,-0.636,-0.6467,-0.6523,-0.6595,-0.6644,-0.6687,-0.6756,-0.6809,-0.6917,-0.695,-0.6948,-0.7106,-0.7166,-0.727,-0.7285,-0.7321,-0.7341,-0.7329,-0.7399,-0.7405,-0.741,-0.7434,-0.7442,-0.7344,-0.7344,-0.7344,-0.7344,0,-0.6458,-0.6531,-0.6574,-0.6676,-0.673,-0.68,-0.6866,-0.6914,-0.6944,-0.6993,-0.7084,-0.7156,-0.7245,-0.7272,-0.7303,-0.738,-0.7377,-0.7386,-0.7383,-0.7415,-0.7438,-0.7448,-0.7342,-0.7343,-0.7343,-0.7343,0,0,-0.6488,-0.6616,-0.6632,-0.6678,-0.6776,-0.6834,-0.6904,-0.6991,-0.7031,-0.7102,-0.7163,-0.7267,-0.7275,-0.7328,-0.7365,-0.7407,-0.7453,-0.7411,-0.7414,-0.7418,-0.7543,-0.7538,-0.7547,-0.7469,-0.747,-0.7472,-0.7537,0,-0.6547,-0.6676,-0.6726,-0.6831,-0.6899,-0.6939,-0.7001,-0.7067,-0.7114,-0.7178,-0.7229,-0.7302,-0.7307,-0.7339,-0.7382,-0.7438,-0.748,-0.7434,-0.7527,-0.753,-0.7508,-0.756,-0.7555,-0.7613,-0.7546,-0.7547,-0.7549,0,-0.6635,-0.6707,-0.6818,-0.6906,-0.6937,-0.6991,-0.7073,-0.7134,-0.7209,-0.724,-0.7296,-0.7331,-0.7406,-0.7394,-0.7498,-0.7466,-0.7506,-0.7539,-0.7543,-0.7556,-0.7543,-0.7576,-0.7632,-0.7642,-0.7563,-0.7562,-0.7561,0,-0.6648,-0.6771,-0.6854,-0.6891,-0.6996,-0.7034,-0.7079,-0.7153,-0.7201,-0.7272,-0.7303,-0.7382,-0.7425,-0.7485,-0.7539,-0.7526,-0.7638,-0.7631,-0.7666,-0.7665,-0.7691,-0.7689,-0.7757,-0.7712,-0.7712,-0.7712,-0.7712,0,-0.6711,-0.6778,-0.686,-0.6912,-0.6987,-0.7043,-0.7116,-0.7164,-0.7229,-0.729,-0.7327,-0.7384,-0.745,-0.7514,-0.7557,-0.7637,-0.7655,-0.7683,-0.7694,-0.7681,-0.7678,-0.7711,-0.7709,-0.7714,-0.7714,-0.7713,-0.7713,0,-0.674,-0.6797,-0.689,-0.698,-0.7004,-0.7056,-0.7134,-0.7184,-0.723,-0.7307,-0.7328,-0.7401,-0.7478,-0.7537,-0.7637,-0.7666,-0.7751,-0.7761,-0.7726,-0.7732,-0.7764,-0.7761,-0.7858,-0.7874,-0.7816,-0.7816,-0.7816,0,-0.6778,-0.683,-0.6925,-0.6968,-0.7013,-0.7082,-0.713,-0.7186,-0.7235,-0.7323,-0.7363,-0.7442,-0.751,-0.7631,-0.7693,-0.777,-0.7784,-0.7812,-0.7796,-0.7781,-0.7787,-0.7784,-0.779,-0.7815,-0.7816,-0.7816,-0.7816,0,-0.684,-0.6865,-0.6933,-0.7011,-0.7067,-0.7131,-0.7196,-0.7229,-0.7296,-0.7349,-0.7428,-0.748,-0.7581,-0.766,-0.7742,-0.7788,-0.7814,-0.782,-0.7833,-0.7822,-0.78,-0.7814,-0.7734,-0.7819,-0.7818,-0.7818,-0.7818,-0.7818,-0.6876,-0.6924,-0.6998,-0.7072,-0.7126,-0.7185,-0.7237,-0.7289,-0.7356,-0.7443,-0.7471,-0.7552,-0.7624,-0.7737,-0.7784,-0.7848,-0.7849,-0.7867,-0.7872,-0.7876,-0.7876,-0.7786,-0.7863,-0.7863,-0.7863,-0.7863,-0.7863,0,-0.6942,-0.699,-0.7058,-0.7146,-0.7204,-0.722,-0.7292,-0.734,-0.7411,-0.7476,-0.754,-0.763,-0.7706,-0.7773,-0.7851,-0.789,-0.7904,-0.7909,-0.7908,-0.7919,-0.787,-0.7852,-0.7897,-0.7897,-0.7897,-0.7897,-0.7897,-0.7897,-0.6983,-0.7065,-0.7098,-0.7207,-0.7255,-0.7335,-0.7375,-0.7429,-0.7481,-0.7579,-0.7642,-0.7684,-0.775,-0.7833,-0.7903,-0.792,-0.7948,-0.7951,-0.7972,-0.7926,-0.7922,-0.7918,-0.7902,-0.7956,-0.7956,-0.8015,-0.8016,-0.8016]}]]